TimeCDT,TemperatureF,Dew PointF,Humidity,Sea Level PressureIn,VisibilityMPH,Wind Direction,Wind SpeedMPH,Gust SpeedMPH,PrecipitationIn,Events,Conditions,WindDirDegrees,DateUTC
12:15 AM,77.4,67.5,71,29.95,10.0,Calm,Calm,-,N/A,,Clear,0,2013-07-21 05:15:00
12:35 AM,76.8,68.0,74,29.96,10.0,Calm,Calm,-,N/A,,Clear,0,2013-07-21 05:35:00
12:55 AM,76.5,67.3,73,29.95,10.0,Calm,Calm,-,N/A,,Clear,0,2013-07-21 05:55:00
1:15 AM,76.5,66.9,72,29.95,10.0,Calm,Calm,-,N/A,,Clear,0,2013-07-21 06:15:00
1:35 AM,75.9,67.6,75,29.95,10.0,SSE,5.8,-,N/A,,Clear,160,2013-07-21 06:35:00
1:55 AM,75.4,67.3,76,29.94,10.0,SSE,4.6,-,N/A,,Clear,160,2013-07-21 06:55:00
2:15 AM,75.2,66.7,75,29.94,10.0,South,5.8,-,N/A,,Clear,180,2013-07-21 07:15:00
2:35 AM,74.8,66.6,75,29.94,10.0,South,8.1,-,N/A,,Clear,180,2013-07-21 07:35:00
2:55 AM,74.5,66.6,76,29.94,10.0,South,6.9,-,N/A,,Clear,170,2013-07-21 07:55:00
3:15 AM,74.3,66.4,76,29.94,10.0,South,6.9,-,N/A,,Clear,180,2013-07-21 08:15:00
3:35 AM,74.3,66.2,76,29.95,10.0,South,8.1,-,N/A,,Clear,180,2013-07-21 08:35:00
3:55 AM,73.9,66.0,76,29.95,10.0,SSW,9.2,-,N/A,,Clear,200,2013-07-21 08:55:00
4:15 AM,73.8,65.8,76,29.95,10.0,SSW,9.2,-,N/A,,Clear,200,2013-07-21 09:15:00
4:35 AM,73.6,65.7,76,29.96,10.0,SSW,9.2,-,N/A,,Clear,200,2013-07-21 09:35:00
4:55 AM,73.2,65.7,77,29.96,10.0,SSW,9.2,-,N/A,,Clear,200,2013-07-21 09:55:00
5:15 AM,73.0,65.5,77,29.96,10.0,SSW,9.2,-,N/A,,Clear,200,2013-07-21 10:15:00
5:35 AM,73.6,66.2,78,29.96,10.0,SW,10.4,-,N/A,,Clear,220,2013-07-21 10:35:00
5:55 AM,73.9,66.4,77,29.96,10.0,SW,8.1,-,N/A,,Clear,220,2013-07-21 10:55:00
6:15 AM,73.6,66.4,78,29.96,10.0,SW,4.6,-,N/A,,Clear,220,2013-07-21 11:15:00
6:35 AM,72.9,66.2,80,29.96,10.0,SSW,3.5,-,N/A,,Clear,210,2013-07-21 11:35:00
6:55 AM,72.5,66.2,81,29.97,10.0,Calm,Calm,-,N/A,,Clear,0,2013-07-21 11:55:00
7:15 AM,72.5,66.4,81,29.98,10.0,Calm,Calm,-,N/A,,Clear,0,2013-07-21 12:15:00
7:35 AM,73.0,66.9,81,29.98,10.0,Calm,Calm,-,N/A,,Clear,0,2013-07-21 12:35:00
7:55 AM,74.3,66.4,76,29.98,10.0,SSW,4.6,-,N/A,,Clear,200,2013-07-21 12:55:00
8:15 AM,75.2,66.9,75,29.99,10.0,South,4.6,-,N/A,,Clear,190,2013-07-21 13:15:00
8:35 AM,76.1,67.5,74,29.99,10.0,SSW,4.6,-,N/A,,Clear,210,2013-07-21 13:35:00
8:55 AM,77.9,68.4,72,29.99,10.0,SW,8.1,-,N/A,,Clear,230,2013-07-21 13:55:00
9:15 AM,79.0,68.9,71,29.99,10.0,SW,6.9,-,N/A,,Clear,220,2013-07-21 14:15:00
9:35 AM,80.4,68.7,67,29.99,10.0,SW,6.9,-,N/A,,Clear,220,2013-07-21 14:35:00
9:55 AM,81.1,69.3,67,29.99,10.0,South,8.1,-,N/A,,Clear,190,2013-07-21 14:55:00
10:15 AM,82.4,68.9,64,29.99,10.0,SW,4.6,-,N/A,,Clear,220,2013-07-21 15:15:00
10:35 AM,83.1,69.3,63,29.99,10.0,SW,6.9,-,N/A,,Clear,220,2013-07-21 15:35:00
10:55 AM,83.8,68.7,60,29.99,10.0,SSW,10.4,-,N/A,,Clear,210,2013-07-21 15:55:00
11:15 AM,84.2,68.5,59,29.99,10.0,South,6.9,-,N/A,,Clear,190,2013-07-21 16:15:00
11:35 AM,85.5,68.5,57,29.99,10.0,SW,4.6,-,N/A,,Clear,230,2013-07-21 16:35:00
11:55 AM,86.2,68.5,55,29.99,10.0,South,8.1,-,N/A,,Clear,190,2013-07-21 16:55:00
12:15 PM,86.2,67.6,54,29.99,10.0,SSW,8.1,-,N/A,,Clear,210,2013-07-21 17:15:00
1:15 PM,87.6,66.9,50,29.98,10.0,SW,10.4,-,N/A,,Clear,220,2013-07-21 18:15:00
1:35 PM,88.0,65.7,47,29.96,10.0,SSW,6.9,-,N/A,,Clear,200,2013-07-21 18:35:00
1:55 PM,88.7,64.9,45,29.96,10.0,South,10.4,-,N/A,,Clear,170,2013-07-21 18:55:00
2:15 PM,89.8,65.5,44,29.95,10.0,South,9.2,-,N/A,,Clear,180,2013-07-21 19:15:00
2:35 PM,90.1,64.4,42,29.94,10.0,SSE,13.8,-,N/A,,Clear,160,2013-07-21 19:35:00
2:55 PM,90.7,65.7,43,29.94,10.0,South,9.2,-,N/A,,Scattered Clouds,190,2013-07-21 19:55:00
3:15 PM,91.4,64.0,40,29.94,10.0,South,12.7,-,N/A,,Clear,190,2013-07-21 20:15:00
3:35 PM,91.4,62.4,38,29.93,10.0,SSW,13.8,17.3,N/A,,Scattered Clouds,200,2013-07-21 20:35:00
3:55 PM,91.8,62.4,37,29.93,10.0,SSW,10.4,18.4,N/A,,Clear,210,2013-07-21 20:55:00
4:15 PM,92.3,62.6,37,29.93,7.0,SSW,12.7,17.3,N/A,,Scattered Clouds,210,2013-07-21 21:15:00
4:35 PM,92.5,62.6,37,29.92,10.0,SSW,11.5,17.3,N/A,,Clear,210,2013-07-21 21:35:00
4:55 PM,92.5,61.3,35,29.91,10.0,South,4.6,-,N/A,,Clear,170,2013-07-21 21:55:00
5:15 PM,93.0,61.2,34,29.91,10.0,South,8.1,-,N/A,,Clear,180,2013-07-21 22:15:00
5:35 PM,92.8,61.9,36,29.90,10.0,South,6.9,-,N/A,,Clear,180,2013-07-21 22:35:00
5:55 PM,92.8,60.6,34,29.90,10.0,SW,3.5,-,N/A,,Clear,230,2013-07-21 22:55:00
6:15 PM,92.8,61.0,34,29.89,10.0,SSW,4.6,-,N/A,,Clear,210,2013-07-21 23:15:00
6:35 PM,90.9,65.3,43,29.89,10.0,SSE,17.3,20.7,N/A,,Scattered Clouds,150,2013-07-21 23:35:00
6:55 PM,90.0,64.4,43,29.89,10.0,SSE,12.7,-,N/A,,Scattered Clouds,150,2013-07-21 23:55:00
7:15 PM,90.3,62.8,40,29.89,10.0,SSE,10.4,-,N/A,,Mostly Cloudy,150,2013-07-22 00:15:00
7:35 PM,88.9,64.9,45,29.90,10.0,SSE,12.7,-,N/A,,Mostly Cloudy,150,2013-07-22 00:35:00
7:55 PM,87.8,65.8,48,29.91,10.0,SSE,9.2,-,N/A,,Scattered Clouds,150,2013-07-22 00:55:00
8:15 PM,86.5,67.1,52,29.91,10.0,SSE,9.2,-,N/A,,Scattered Clouds,150,2013-07-22 01:15:00
8:35 PM,83.3,67.1,58,29.92,10.0,South,15.0,-,N/A,,Clear,170,2013-07-22 01:35:00
8:55 PM,81.7,67.1,61,29.93,10.0,South,11.5,17.3,N/A,,Clear,180,2013-07-22 01:55:00
9:15 PM,80.8,67.3,63,29.93,10.0,South,8.1,-,N/A,,Clear,190,2013-07-22 02:15:00
9:35 PM,80.6,67.1,63,29.93,10.0,SSW,8.1,-,N/A,,Clear,200,2013-07-22 02:35:00
9:55 PM,80.6,67.5,64,29.94,10.0,SSW,9.2,-,N/A,,Scattered Clouds,200,2013-07-22 02:55:00
10:15 PM,80.1,68.0,67,29.95,10.0,South,9.2,-,N/A,,Clear,180,2013-07-22 03:15:00
10:35 PM,79.3,68.0,68,29.96,10.0,South,8.1,-,N/A,,Clear,190,2013-07-22 03:35:00
10:55 PM,79.2,68.0,69,29.96,10.0,SSW,6.9,-,N/A,,Clear,200,2013-07-22 03:55:00
11:15 PM,78.8,68.0,69,29.96,10.0,South,8.1,-,N/A,,Clear,190,2013-07-22 04:15:00
11:35 PM,78.3,68.2,71,29.97,10.0,South,6.9,-,N/A,,Clear,190,2013-07-22 04:35:00
11:55 PM,77.5,68.7,74,29.97,10.0,South,4.6,-,N/A,,Clear,180,2013-07-22 04:55:00